This is the latest recevied weather packets stored in our database for station/object KB4MLW-13. If no packets are shown the sender has not sent any weather packets the latest 10 day(s).
| Time | Temp. | Humidity | Pressure | Rain* | Wind** | Luminosity | Snow |
|---|---|---|---|---|---|---|---|
| 1788290458 | 33.89° C | 59% | 1001.4 hPa | 0 mm | - | - | - |
| 1788290369 | 34.44° C | 58% | 1001.4 hPa | 0 mm | - | - | - |
| 1788290308 | 34.44° C | 59% | 1001.1 hPa | 0 mm | - | - | - |
| 1788290218 | 34.44° C | 58% | 1001.2 hPa | 0 mm | - | - | - |
| 1788290158 | 34.44° C | 57% | 1001.1 hPa | 0 mm | - | - | - |
| 1788290069 | 34.44° C | 61% | 1001.4 hPa | 0 mm | - | - | - |
| 1788290008 | 35° C | 57% | 1001.2 hPa | 0 mm | - | - | - |
| 1788289948 | 35° C | 58% | 1001.1 hPa | 0 mm | - | - | - |
| 1788289859 | 34.44° C | 56% | 1001.3 hPa | 0 mm | - | - | - |
| 1788289769 | 34.44° C | 56% | 1001.2 hPa | 0 mm | - | - | - |
| 1788289708 | 35° C | 57% | 1001.2 hPa | 0 mm | - | - | - |
| 1788289648 | 35° C | 62% | 1001.6 hPa | 0 mm | - | - | - |
| 1788289559 | 34.44° C | 57% | 1001.4 hPa | 0 mm | - | - | - |
| 1788289506 | 34.44° C | 60% | 1001.4 hPa | 0 mm | - | - | - |
| 1788289408 | 34.44° C | 57% | 1001.4 hPa | 0 mm | - | - | - |
| 1788289348 | 35° C | 57% | 1001.4 hPa | 0 mm | - | - | - |
| 1788289259 | 35° C | 59% | 1001.5 hPa | 0 mm | - | - | - |
| 1788289198 | 35° C | 55% | 1001.4 hPa | 0 mm | - | - | - |
| 1788289108 | 35° C | 55% | 1001.3 hPa | 0 mm | - | - | - |
| 1788289019 | 34.44° C | 56% | 1001.5 hPa | 0 mm | - | - | - |
| 1788288958 | 34.44° C | 58% | 1001.4 hPa | 0 mm | - | - | - |
| 1788288898 | 34.44° C | 56% | 1001.5 hPa | 0 mm | - | - | - |
| 1788288809 | 34.44° C | 59% | 1001.7 hPa | 0 mm | - | - | - |
| 1788288749 | 34.44° C | 59% | 1001.3 hPa | 0 mm | - | - | - |
| 1788288688 | 34.44° C | 56% | 1001.6 hPa | 0 mm | - | - | - |
* Rain latest hour (hover to see other rain measurements)
** Current wind speed in m/s (hover to see current wind gust speed)